Miscellaneous Local Product
Issued by NWS North Platte, NE

Home | Current Version | Previous Version | Text Only | Print | Product List | Glossary On
Versions: 1 2 3 4 5 6 7 8 9 10 11 12 13 14 15 16 17 18 19 20 21 22 23 24 25 26 27 28 29 30 31 32 33 34 35 36 37 38 39 40 41 42 43 44 45 46 47 48 49 50
000
AXUS43 KLBF 200010
MISLBF


WESTERN AND NORTH CENTRAL NEBRASKA HOURLY WEATHER ROUNDUP
NATIONAL WEATHER SERVICE NORTH PLATTE NE
600 PM CST MON FEB 19 2018

NOTE: "FAIR" INDICATES FEW OR NO CLOUDS BELOW 12,000 FEET WITH NO
SIGNIFICANT WEATHER AND/OR OBSTRUCTIONS TO VISIBILITY.

NOTE: STATIONS NOT REPORTING VARIABLES SUCH AS SKY/WEATHER OR
PRESSURE ARE PROVIDED BY RAWS AND APRS NETWORKS AND ARE NOT UNDER
NATIONAL WEATHER SERVICE QUALITY CONTROL.

...OBSERVATIONS IN AND NEAR THE EASTERN PANHANDLE OF NEBRASKA...

CITY           SKY/WX    TMP DP  RH WIND       PRES   REMARKS
PINE RIDGE     LGT SNOW   2  -3  80 N10       29.87R WCI -14
GORDON         LGT SNOW   2  -4  75 N13       29.81F WCI -15
CHADRON        SNOW       2  -3  80 N15       29.92R VSB 1/2 WCI -17
ALLIANCE       LGT SNOW   3  -2  79 NE10      29.78R WCI -12
SIDNEY         LGT SNOW   6   1  80 N13       29.72R WCI -10
$$

...OBSERVATIONS IN NORTHERN NEBRASKA AND FAR SOUTHERN SOUTH DAKOTA...

CITY           SKY/WX    TMP DP  RH WIND       PRES   REMARKS
WINNER         LGT SNOW  10   5  80 N16       29.96R WCI  -7
VALENTINE      LGT SNOW   7   0  73 N15G22    29.90R WCI -10
AINSWORTH      LGT SNOW   8   6  91 N21       29.88S WCI -12
O`NEILL        LGT SNOW  11   8  88 N17       29.89S WCI  -6
THEDFORD       CLOUDY     8   4  87 N13       29.85R WCI  -8
BROKEN BOW     LGT SNOW  11   6  81 N13       29.83R WCI  -4
ORD            LGT SNOW  12   8  84 N17       29.85R FOG     WCI  -5
ALBION         FLURRIES  15  11  84 N12       29.86R WCI   2
$$

...OBSERVATIONS IN SOUTHWEST NEBRASKA AND FAR NORTHEAST COLORADO...

CITY           SKY/WX    TMP DP  RH WIND       PRES   REMARKS
WRAY           FLURRIES  14  10  85 NE10      29.73S WCI   1
HOLYOKE        LGT SNOW  14   9  79 NE12      29.74S WCI   0
IMPERIAL       FLURRIES  11   8  88 NE14      29.77R WCI  -5
OGALLALA       LGT SNOW  12   8  83 N13       29.79R WCI  -3
NORTH PLATTE   LGT SNOW  11   4  73 NE10      29.82R WCI  -3
MCCOOK         CLOUDY    16  10  77 N12       29.81R WCI   3
LEXINGTON      FLURRIES  15  10  80 N17       29.83S WCI  -2
GOTHENBURG       N/A     12   7  81 N10         N/A  WCI  -1
CALLAWAY         N/A     10   7  87 N12         N/A  WCI  -5
$$

...OBSERVATIONS IN CENTRAL LINCOLN COUNTY AREA...

CITY           SKY/WX    TMP DP  RH WIND       PRES   REMARKS
N.P. AIRPORT   LGT SNOW  11   4  73 NE10      29.82R WCI  -3
$$

...OBSERVATIONS ACROSS THE ROCKIES AND WESTERN HIGH PLAINS...

CITY           SKY/WX    TMP DP  RH WIND       PRES   REMARKS
RAPID CITY     LGT SNOW   0  -5  79 N14       29.95R VSB 1   WCI -19
SCOTTSBLUFF    LGT SNOW   5  -2  72 N8        29.81R WCI  -8
CHEYENNE       LGT SNOW   1  -3  83 N9        29.57R VSB 1   WCI -14
DENVER         SNOW      10   6  84 NE15      29.56S VSB 1/2 WCI  -7
BERTHOUD PASS  SNOW      14   3  62 MISG      29.31S VSB 1/2
COPPER MTN     SNOW      23  18  80 S20G25    29.31F VSB 1/2 WCI   8
MONARCH PASS     N/A     19  18  93 MISG      29.40F
ASPEN          SNOW      27  25  92 N9        29.31R VSB 1/2 WCI  18
LARAMIE        LGT SNOW   5   3  91 S10       29.40R VSB 3/4 WCI -10
CASPER         CLOUDY    -2  -7  79 NE12      29.72R HAZE    WCI -20
$$

...OBSERVATIONS ACROSS THE NORTHERN PLAINS...

CITY           SKY/WX    TMP DP  RH WIND       PRES   REMARKS
BISMARCK       LGT SNOW   4  -1  80 NE10      30.17S WCI -11
FARGO          CLOUDY     7  -1  70 N22       30.15R WCI -14
PIERRE         FLURRIES   8   4  83 N18       30.01S WCI -11
SIOUX FALLS    LGT SNOW  15  11  83 NE20G25   29.87F FOG     WCI  -2
$$

...OBSERVATIONS ACROSS THE CENTRAL AND SOUTHERN PLAINS...

CITY           SKY/WX    TMP DP  RH WIND       PRES   REMARKS
OMAHA          FLURRIES  23  20  88 N10       29.87R WCI  12
GRAND ISLAND   LGT SNOW  15  11  83 N14       29.86R FOG     WCI   0
KANSAS CITY    CLOUDY    31  28  89 NW10      29.82R WCI  22
WICHITA        CLOUDY    32  25  75 NE15      29.79S WCI  22
DODGE CITY     CLOUDY    32  17  54 NE10      29.71F WCI  24
OKLAHOMA CITY  DRIZZLE   45  38  76 NE13      29.74S
DALLAS         CLOUDY    79  63  57 S17G29    29.77R
AMARILLO       CLOUDY    67  32  27 SW24G33   29.62S
$$




USA.gov is the U.S. government's official web portal to all federal, state and local government web resources and services.